Location: Waning Moon II Observatory
(30.3730°N, 89.7620°W)
Time: 00:26:55
(UTC-05:00)

Meteor 1-21 - Visible Passes

Search period start: 28 August 2015 00:00
Search period end: 07 September 2015 00:00
Orbit: 844 x 888 km, 81.2° (Epoch: 27 August)

Date Brightness Start Highest point End Pass type
(mag) Time Alt. Az. Time Alt. Az. Time Alt. Az.
28 Aug 4.2 21:36:59 10° N 21:42:50 85° W 21:43:13 78° SSW visible
29 Aug 4.2 21:29:43 10° N 21:35:34 84° W 21:36:29 65° S visible
30 Aug 4.2 21:22:27 10° N 21:28:18 83° W 21:29:49 52° S visible
31 Aug 4.3 21:15:11 10° N 21:21:02 82° W 21:23:13 40° S visible
01 Sep 4.3 21:07:55 10° N 21:13:46 82° W 21:16:41 31° S visible
02 Sep 4.3 21:00:40 10° N 21:06:29 81° W 21:10:16 23° S visible
03 Sep 4.3 20:53:23 10° N 20:59:13 80° W 21:03:59 16° S visible
04 Sep 4.4 20:46:07 10° N 20:51:57 79° W 20:57:42 10° S visible
05 Sep 4.4 20:38:51 10° N 20:44:41 78° W 20:50:25 10° S visible
06 Sep 4.4 20:31:36 10° N 20:37:24 77° W 20:43:09 10° S visible
